ATLAS 5 CENTAUR DEB, 44680

Orbit data source: Space-Track

ATLAS 5 CENTAUR DEB, 44680 is space debris in HEO originally from a launch on Wed, 17 Oct 2018 UTC launched from the Air Force Eastern Test Range (AFETR). Debris objects in space refer to the collection of defunct objects orbiting the Earth. Examples of debris include non-operational satellites, rocket bodies, and fragments generated from explosions, collisions, or faulty payload assembly.

Loading next visibility...
Identifier
44680, 2018-079AS
Orbit
HEO
Country
Flag of USUS
Related business
Flag of USUnited Launch Alliance/Lockheed Martin (US)
Manufacturer
ULA Decatur
Mission
Spacecraft
Bus & Motor
Unknown
Mass
Unknown
Launch date (UTC)
2018-10-17 (8 years ago)
Launch vehicle
Unknown
Launch site
Air Force Eastern Test Range (AFETR)
Object type
Payload
Rocket body
Debris
Shape & HBR
Unknown shape, 1.1 m
Radar Cross Section
Medium (>0.1 m² and <1 m²)

Expand to show TLE details & history
Last TLE update: 1 day ago

TLE from 1 day ago
0 ATLAS 5 CENTAUR DEB
1 44680U 18079AS  26236.00122066 -.00000174  00000-0  00000-0 0  9996
2 44680  13.4068  43.5737 4692012 293.9467  24.3869  1.75587819 46653
Epoch: 2026-08-24T00:01Z
TLE epoch observation values (Epoch: 2026-08-24T00:01:45.465Z)
Latitude
-0.00007°
Longitude
70.92607°
Altitude
12,619.269 km
Speed
5.313 km/s
True Right ascension
02h 54m 37s
True Declination
0° 00' 00"
Sunlit
Object was in daylight at epoch
Visualization orbit readout
Latitude
Unknown
Longitude
Unknown
Altitude
Unknown
Speed
Unknown
Apparent Right ascension
Unknown
Apparent Declination
Unknown
Sunlit
N/A
Visualization observer readout
Local Sidereal Time
17:07:32
Azimuth
Unknown
Elevation
Unknown
Doppler factor
Unknown
Orbital elements
Apogee altitude
36,265.16 km
Perigee altitude
9,028.201 km
Semi-major axis
29,024.818 km
Eccentricity
0.4692
Inclination
13.4068°
RAAN
43.5737°
Arg. of periapsis
293.9467°
True anomaly
65.905°
Mean anomaly
24.3869°
Eccentric anomaly
42.57483°
Mean motion
0.43892 °/min
Orbital period
820.19 mins
BSTAR
0
Loading maneuver chart data...
Computing Atmospheric mass density...

Documentation

Showing up to 5 results
|